[[{"header":{"parameterUnit":"m.s-1","parameterCategory":1,"la1":30.2991,"la2":30.254,"lo1":-89.0895,"lo2":-89.0444,"dy":0.0017,"dx":0.0017,"nx":28,"ny":28,"refTime":"2024-07-13T09:00:00:Z","depth":0,"parameterNumber":2,"parameterNumberName":"U-component_of_WINDS"},"data":[0,0,0,0,0,0,0,0,0,0,0,0,0,0,0,0,0,0,0,0,0,0,0,0,0,0,0,0,0,0,0,0,0,0,0,0,0,0,0,0,0,0,0,0,0,0,0,0,0,0,0,0,0,0,0,0,0,0,3.1707,3.1707,0,3.1709,3.1709,3.1709,3.1589,3.1586,3.1583,3.158,3.1583,3.1585,3.1588,0,0,0,0,0,0,0,0,0,0,0,0,0,3.16,3.1603,3.1707,3.1707,3.1707,3.1709,3.1709,3.1709,3.159,3.1586,3.1582,3.1578,3.1582,3.1585,3.1589,0,0,0,0,0,0,0,0,0,0,0,0,0,3.1629,3.1604,3.1707,3.1648,3.1643,3.1709,3.1709,3.1709,3.1591,3.1586,3.1581,3.1577,3.158,3.1585,3.1589,3.1713,0,0,3.1603,3.1605,0,0,0,0,0,0,0,0,3.1628,3.1633,3.1657,3.1652,3.1646,3.1644,3.1672,3.171,3.1592,3.161,3.158,3.1574,3.1607,3.1609,3.162,3.1713,3.1713,3.1604,3.1606,3.1608,3.161,0,0,0,0,0,0,0,3.1626,3.1632,3.1708,3.1657,3.1651,3.1621,3.162,3.1679,3.1635,3.1608,3.16,3.1601,3.1603,3.1616,3.1619,3.1713,3.1603,3.1607,3.161,3.1612,3.1903,3.1908,0,0,0,0,0,0,3.1632,3.1632,3.1708,3.1708,3.1625,3.1627,3.1626,3.165,3.1634,3.1627,3.1606,3.1596,3.161,3.1614,3.1619,3.1758,3.1608,3.1612,3.1615,3.1898,3.1904,3.191,0,0,0,0,0,0,3.163,3.164,3.1708,3.1667,3.1674,3.1634,3.1662,3.1652,3.1664,3.1632,3.1624,3.1626,3.1607,3.1612,3.1689,3.1757,3.1615,3.1619,3.1893,3.19,3.1907,3.2042,0,0,0,0,0,0,3.1628,3.164,3.1686,3.1669,3.1676,3.1779,3.1666,3.1656,3.1672,3.166,3.1649,3.1643,3.1603,3.1683,3.1694,3.1761,3.1622,3.1886,3.1896,3.1905,3.2031,3.2053,3.2072,0,0,0,0,0,3.1624,3.1725,3.1689,3.1699,3.1734,3.1783,3.1787,3.1739,3.1678,3.1724,3.1703,3.1643,3.1749,3.1692,3.1703,3.1772,3.1882,3.1893,3.1904,3.2022,3.2048,3.2071,0,0,0,0,0,0,3.1752,3.1722,3.1682,3.178,3.1785,3.1763,3.1819,3.1769,3.1791,3.1778,3.1718,3.1717,3.1803,3.1796,3.1733,3.1889,3.1804,3.1818,3.189,3.1915,3.1935,3.1933,3.1626,0,0,0,0,0,3.1792,3.1834,3.1806,3.1896,3.19,3.186,3.1879,3.1842,3.1844,3.1846,3.183,3.1835,3.1868,3.1892,3.1922,3.2031,3.2025,3.2084,3.2104,3.2121,3.2132,3.2186,3.2211,3.1947,3.1947,3.1947,0,0,3.1874,3.1863,3.1894,3.1921,3.192,3.1964,3.1862,3.1914,3.1946,3.1854,3.1923,3.1914,3.1915,3.2007,3.2047,3.2004,3.2205,3.2135,3.2149,3.2151,3.22,3.2225,3.2247,3.1955,3.1953,3.1952,0,0,3.2046,3.2043,3.2115,3.2116,3.2116,3.2088,3.2106,3.2091,3.208,3.215,3.2081,3.2118,3.2179,3.2181,3.2191,3.2363,3.2307,3.2375,3.2479,3.2532,3.2553,3.2571,3.2629,3.2651,3.2387,3.2388,3.2388,0,3.2148,3.2211,3.2159,3.2215,3.2228,3.2146,3.2218,3.2222,3.2232,3.2243,3.2194,3.2266,3.2262,3.2352,3.2394,3.2406,3.2422,3.2374,3.2554,3.2572,3.2588,3.2642,3.2665,3.2395,3.2394,3.2394,3.2393,0,3.2335,3.2381,3.244,3.2449,3.2469,3.2533,3.249,3.2517,3.2478,3.2456,3.2527,3.2519,3.2543,3.2563,3.2527,3.2648,3.262,3.2565,3.2477,3.2622,3.2671,3.2692,3.2407,3.2404,3.2401,3.24,0,0,3.2585,3.2565,3.2587,3.2589,3.2582,3.2616,3.2677,3.27,3.2722,3.2733,3.278,3.2833,3.278,3.2791,3.2754,3.2801,3.2933,3.2739,3.2738,3.2772,3.3063,3.3102,3.3127,3.2898,3.2902,3.2905,3.3061,0,3.2748,3.2847,3.2802,3.2906,3.2946,3.2869,3.2921,3.2923,3.2904,3.2934,3.2914,3.295,3.288,3.2885,3.2929,3.2908,3.299,3.2897,3.2939,3.2941,3.2937,3.3153,3.3195,3.3342,3.3081,3.3084,3.3087,0,3.295,3.2967,3.3075,3.3058,3.3073,3.3121,3.3137,3.3169,3.3169,3.3151,3.3163,3.3115,3.3172,3.3089,3.3165,3.3102,3.3117,3.311,3.3115,3.3113,3.302,3.3154,3.3389,3.3409,3.3117,3.3115,3.3113,0,3.3116,3.3166,3.3236,3.3241,3.3225,3.326,3.3255,3.325,3.3266,3.3282,3.3291,3.3315,3.3326,3.3345,3.3304,3.3247,3.3384,3.3298,3.3369,3.3371,3.3398,3.3396,3.3635,3.3416,3.3416,3.3415,3.3415,0,3.33,3.3368,3.331,3.3353,3.3426,3.3374,3.3448,3.3435,3.3432,3.347,3.3407,3.3444,3.339,3.3422,3.3391,3.3457,3.3464,3.345,3.344,3.3453,3.3454,3.3459,3.3446,3.3421,3.342,3.3419,3.3418,0,3.3496,3.346,3.3531,3.351,3.3506,3.3561,3.3543,3.3581,3.3558,3.3607,3.3616,3.358,3.3614,3.3576,3.3608,3.3587,3.3675,3.3652,3.3674,3.3666,3.3738,3.373,3.3984,3.4013,3.378,3.3782,3.3784,0,3.3613,3.3663,3.3648,3.3668,3.3667,3.3701,3.3717,3.3668,3.3687,3.3691,3.3728,3.3757,3.3777,3.3835,3.3812,3.3835,3.381,3.3898,3.3813,3.3824,3.3806,3.3802,3.3805,3.3914,3.3916,3.3919,3.3921,0,3.3824,3.3803,3.3828,3.3847,3.3868,3.3881,3.3889,3.3909,3.3858,3.3883,3.3917,3.3932,3.3964,3.3993,3.401,3.4004,3.3953,3.3948,3.3965,3.3976,3.3985,3.3977,3.3716,3.3941,3.3939,3.3938,3.3937,3.3936,3.3981,3.402,3.4015,3.4044,3.4045,3.4054,3.4087,3.4068,3.4095,3.4116,3.4087,3.4128,3.4125,3.4143,3.4143,3.4174,3.4137,3.4163,3.4168,3.4174,3.4183,3.3984,3.4178,3.4177,3.4177,3.4176,3.4176,0,3.4184,3.4176,3.4204,3.4216,3.424,3.4191,3.4197,3.4219,3.4256,3.4258,3.4278,3.4316,3.4344,3.4323,3.4345,3.4374,3.4351,3.4381,3.4376,3.4375,3.4217,3.4198,3.4399,3.4399,3.4399,3.4399,3.4399,3.4399,3.4292,3.4355,3.4334,3.4397,3.4389,3.4428,3.4435,3.4442,3.4443,3.4488,3.451,3.4496,3.4488,3.451,3.4533,3.4526,3.4535,3.4573,3.4558,3.4409,3.4387,3.4366,3.4347,3.4577,3.4577,3.4712,3.4713,3.4714]},{"header":{"parameterUnit":"m.s-1","parameterCategory":1,"la1":30.2991,"la2":30.254,"lo1":-89.0895,"lo2":-89.0444,"dy":0.0017,"dx":0.0017,"nx":28,"ny":28,"refTime":"2024-07-13T09:00:00:Z","depth":0,"parameterNumber":3,"parameterNumberName":"V-component_of_WINDS"},"data":[0,0,0,0,0,0,0,0,0,0,0,0,0,0,0,0,0,0,0,0,0,0,0,0,0,0,0,0,0,0,0,0,0,0,0,0,0,0,0,0,0,0,0,0,0,0,0,0,0,0,0,0,0,0,0,0,0,0,2.746,2.7461,0,2.7597,2.7598,2.76,2.7608,2.7606,2.7604,2.7603,2.7744,2.7749,2.7755,0,0,0,0,0,0,0,0,0,0,0,0,0,2.7204,2.7208,2.7459,2.7461,2.7463,2.7596,2.7598,2.76,2.7608,2.7606,2.7604,2.7602,2.7743,2.7749,2.7755,0,0,0,0,0,0,0,0,0,0,0,0,0,2.7325,2.721,2.7459,2.7483,2.7486,2.7596,2.7598,2.7601,2.7608,2.7606,2.7603,2.7601,2.7741,2.7748,2.7756,2.7852,0,0,2.778,2.7783,0,0,0,0,0,0,0,0,2.7318,2.7334,2.7478,2.7481,2.7485,2.7583,2.756,2.7685,2.7609,2.7562,2.7603,2.76,2.7693,2.7704,2.7735,2.7858,2.7865,2.7781,2.7785,2.7789,2.7791,0,0,0,0,0,0,0,2.731,2.7329,2.7514,2.748,2.7484,2.7486,2.7501,2.7584,2.7639,2.7566,2.7567,2.7583,2.7694,2.7728,2.7739,2.7867,2.778,2.7787,2.7792,2.7795,2.8073,2.8076,0,0,0,0,0,0,2.7297,2.7322,2.7509,2.7518,2.7394,2.7493,2.7509,2.7554,2.7638,2.7649,2.7585,2.7583,2.7715,2.7729,2.7744,2.786,2.7789,2.7796,2.7801,2.807,2.8074,2.8076,0,0,0,0,0,0,2.7291,2.7313,2.7504,2.742,2.7444,2.75,2.755,2.7558,2.7591,2.7652,2.7662,2.7609,2.7714,2.7732,2.7824,2.7865,2.78,2.7807,2.8067,2.8071,2.8075,2.8094,0,0,0,0,0,0,2.7284,2.7311,2.7349,2.7421,2.7449,2.7583,2.7552,2.7562,2.7604,2.7603,2.7677,2.7687,2.7714,2.7812,2.7832,2.7874,2.7813,2.8064,2.8069,2.8074,2.809,2.8098,2.8105,0,0,0,0,0,2.7275,2.7349,2.7351,2.7373,2.7497,2.7585,2.7601,2.7629,2.7608,2.7645,2.7684,2.7685,2.7857,2.7822,2.7844,2.7889,2.8061,2.8068,2.8073,2.8086,2.8096,2.8105,0,0,0,0,0,0,2.7282,2.7359,2.7362,2.7462,2.7516,2.7586,2.7635,2.7639,2.7702,2.7698,2.7731,2.7747,2.7838,2.7873,2.7832,2.7985,2.7957,2.7967,2.7959,2.7969,2.7976,2.7966,2.7819,0,0,0,0,0,2.7295,2.736,2.7424,2.7506,2.7534,2.7579,2.7619,2.7636,2.7694,2.7717,2.7763,2.782,2.7886,2.793,2.7995,2.8095,2.811,2.8137,2.8144,2.815,2.8159,2.8212,2.8225,2.8096,2.8096,2.8096,0,0,2.7323,2.7373,2.7413,2.7509,2.7553,2.762,2.7599,2.7671,2.772,2.7729,2.7817,2.7853,2.7918,2.8014,2.8058,2.8046,2.8198,2.8158,2.8162,2.8168,2.822,2.8232,2.8243,2.81,2.8099,2.8099,0,0,2.7407,2.7453,2.7525,2.7569,2.7636,2.7666,2.7683,2.7752,2.7775,2.7865,2.7872,2.7931,2.8046,2.8091,2.8129,2.8228,2.8231,2.8248,2.8288,2.834,2.835,2.8359,2.8393,2.8405,2.8257,2.8257,2.8257,0,2.7434,2.7534,2.7562,2.7633,2.7674,2.7684,2.7757,2.7799,2.7884,2.7912,2.7897,2.8039,2.8084,2.8189,2.8213,2.8244,2.8264,2.824,2.8346,2.8356,2.8364,2.8397,2.841,2.8259,2.8259,2.8258,2.8258,0,2.7562,2.7632,2.7682,2.7762,2.781,2.7881,2.7919,2.7964,2.7976,2.8007,2.8097,2.815,2.8225,2.8252,2.8265,2.8359,2.8348,2.8339,2.8311,2.8378,2.8409,2.8422,2.8261,2.826,2.826,2.826,0,0,2.7657,2.775,2.7768,2.7804,2.7877,2.7931,2.8002,2.8075,2.8111,2.8169,2.8229,2.8325,2.8316,2.8359,2.8377,2.8423,2.8496,2.8408,2.841,2.8421,2.8601,2.8607,2.8621,2.8498,2.85,2.8502,2.8595,0,2.7749,2.7876,2.7902,2.8011,2.8074,2.8083,2.8145,2.8197,2.8227,2.8285,2.8318,2.8385,2.8369,2.8394,2.844,2.8477,2.8532,2.8471,2.8553,2.8556,2.8536,2.8637,2.8645,2.8729,2.8607,2.8609,2.8611,0,2.7874,2.7933,2.8048,2.8111,2.8139,2.8194,2.8261,2.8317,2.8374,2.8393,2.844,2.8453,2.8526,2.8494,2.8595,2.8553,2.8588,2.8611,2.8615,2.8624,2.8587,2.8648,2.8757,2.877,2.8631,2.8629,2.8628,0,2.7929,2.8038,2.8121,2.8151,2.8227,2.8265,2.8298,2.8354,2.8395,2.8454,2.848,2.8547,2.8584,2.8635,2.8665,2.8639,2.8763,2.8734,2.878,2.8779,2.8806,2.8804,2.8922,2.8829,2.8829,2.8829,2.8828,0,2.8029,2.8099,2.8146,2.8197,2.8275,2.8304,2.838,2.8413,2.8462,2.8519,2.8531,2.8584,2.8621,2.8679,2.8702,2.8782,2.8798,2.8815,2.882,2.8814,2.8811,2.8837,2.8831,2.8832,2.8831,2.8831,2.883,0,2.8105,2.814,2.823,2.8293,2.8311,2.8365,2.842,2.8469,2.8498,2.857,2.8588,2.8635,2.8703,2.8738,2.8824,2.884,2.8929,2.8931,2.8909,2.8911,2.8954,2.8949,2.9092,2.9112,2.9007,2.9008,2.9009,0,2.8166,2.822,2.8288,2.8327,2.8361,2.8423,2.8464,2.8494,2.8536,2.8605,2.8646,2.8714,2.8771,2.888,2.8922,2.8987,2.899,2.9036,2.9,2.8991,2.899,2.8986,2.8991,2.9042,2.9043,2.9044,2.9044,0,2.8271,2.8284,2.8344,2.8408,2.8457,2.8509,2.8561,2.8592,2.8629,2.8676,2.8746,2.879,2.8876,2.8944,2.9012,2.9046,2.9051,2.9055,2.9069,2.9063,2.9047,2.9055,2.8925,2.9052,2.9051,2.9051,2.905,2.905,2.8341,2.8388,2.8443,2.8508,2.8549,2.8596,2.8645,2.868,2.8738,2.881,2.8824,2.8898,2.8952,2.9043,2.9079,2.9137,2.9127,2.9148,2.9153,2.9157,2.9158,2.9038,2.915,2.9149,2.9149,2.9149,2.9149,0,2.8445,2.848,2.8539,2.861,2.866,2.866,2.8716,2.8759,2.8823,2.8873,2.8928,2.9007,2.9072,2.9118,2.9184,2.9221,2.9225,2.9237,2.9235,2.9242,2.9164,2.9145,2.9233,2.9233,2.9233,2.9233,2.9233,2.9233,2.8505,2.8585,2.8604,2.8704,2.8739,2.881,2.8842,2.8885,2.8925,2.9013,2.9066,2.9095,2.9143,2.9212,2.9272,2.9284,2.9307,2.9319,2.9331,2.9257,2.9248,2.924,2.9222,2.9324,2.9324,2.9404,2.9405,2.9405]}]]